Fredericton, New Brunswick

12:21 PM ADT on May 23, 2017 (GMT -0300)
Greater Fredericton Airport

Weather History for CYFC - September, 2012

Change the Weather History Date:

Tuesday, September 11, 2012

  Actual Average Record
Temperature  
Mean Temperature 58 °F -  
Max Temperature 69 °F 63 °F 79 °F (2013)
Min Temperature 48 °F 41 °F 35 °F (2006)
Degree Days  
Heating Degree Days 6    
Growing Degree Days 8 (Base 50)    
Moisture  
Dew Point 46 °F    
Average Humidity 66    
Maximum Humidity 94    
Minimum Humidity 33    
Precipitation  
Precipitation 0.00 in 0.12 in - ()
Sea Level Pressure  
Sea Level Pressure 29.99 in    
Wind  
Wind Speed 9 mph ()    
Max Wind Speed 16 mph    
Max Gust Speed 24 mph    
Visibility 9.1 miles    
Events      
Averages and records for this station are not official NWS values.
T = Trace of Precipitation, MM = Missing Value Source: Averaged Metar Reports

Daily Weather History Graph

Daily Weather History Graph

Search for Another Location

Airport or City:

Trip Planner

Search our weather history database for the weather conditions in past years. The results will help you decide how hot, cold, wet, or windy it might be!

Date:

Astronomy

Sep. 11, 2012 Rise Set
Actual Time 6:59 AM ADT 7:44 PM ADT
Civil Twilight 6:29 AM ADT 8:14 PM ADT
Nautical Twilight 5:53 AM ADT 8:50 PM ADT
Astronomical Twilight 5:16 AM ADT 9:27 PM ADT
Moon 2:01 AM ADT (9/11) 5:02 PM ADT (9/11)
Length of Visible Light 13h 44m
Length of Day
12h 44m
Waning Crescent, 22% of the Moon is Illuminated
Sep 11
Waning Crescent
Sep 15
New
Sep 22
First Quarter
Sep 30
Full
Oct 8
Last Quarter

Hourly Weather History & Observations

Time (ADT) Temp. Dew Point Humidity Pressure Visibility Wind Dir Wind Speed Gust Speed Precip Events Conditions
12:00 AM 53.6 °F 48.2 °F 82% 29.83 in 9.0 mi WNW 8.1 mph - N/A   Clear
1:00 AM 53.6 °F 48.2 °F 82% 29.82 in 9.0 mi WNW 9.2 mph - N/A   Clear
2:00 AM 53.6 °F 48.2 °F 82% 29.82 in 9.0 mi WNW 11.5 mph - N/A   Clear
3:00 AM 53 °F 46 °F 71% 29.83 in 10 mi WNW 9.2 mph - -  
3:00 AM 51.8 °F 46.4 °F 82% 29.83 in 9.0 mi WNW 10.4 mph - N/A   Clear
4:00 AM 51.8 °F 44.6 °F 76% 29.84 in 9.0 mi WNW 9.2 mph 18.4 mph N/A   Clear
5:00 AM 50.0 °F 44.6 °F 82% 29.86 in 9.0 mi NW 10.4 mph - N/A   Clear
6:00 AM 50.0 °F 44.6 °F 82% 29.90 in 9.0 mi WNW 10.4 mph 21.9 mph N/A   Clear
7:00 AM 50.0 °F 42.8 °F 76% 29.92 in 9.0 mi WNW 9.2 mph 18.4 mph N/A   Clear
8:00 AM 50.0 °F 42.8 °F 76% 29.96 in 9.0 mi WNW 11.5 mph 20.7 mph N/A   Clear
9:00 AM 53 °F 43 °F 59% 29.99 in 10 mi NW 15.0 mph - -  
9:00 AM 51.8 °F 42.8 °F 71% 29.99 in 9.0 mi NW 16.1 mph 24.2 mph N/A   Clear
10:00 AM 57.2 °F 44.6 °F 63% 30.01 in 9.0 mi NW 15.0 mph - N/A   Clear
11:00 AM 59.0 °F 44.6 °F 59% 30.03 in 9.0 mi West 9.2 mph 20.7 mph N/A   Clear
12:00 PM 64.4 °F 44.6 °F 49% 30.04 in 9.0 mi WNW 10.4 mph - N/A   Clear
1:00 PM 66.2 °F 44.6 °F 46% 30.04 in 9.0 mi West 10.4 mph 20.7 mph N/A   Clear
2:00 PM 66.2 °F 46.4 °F 49% 30.04 in 9.0 mi West 10.4 mph - N/A   Clear
3:00 PM 68 °F 45 °F 33% 30.04 in 10 mi West 10.4 mph - -  
3:00 PM 68.0 °F 44.6 °F 43% 30.04 in 9.0 mi West 10.4 mph 19.6 mph N/A   Clear
4:00 PM 68.0 °F 42.8 °F 40% 30.04 in 9.0 mi WNW 9.2 mph 18.4 mph N/A   Clear
5:00 PM 68.0 °F 44.6 °F 43% 30.04 in 9.0 mi WNW 9.2 mph - N/A   Clear
6:00 PM 68.0 °F 44.6 °F 43% 30.06 in 9.0 mi West 6.9 mph - N/A   Clear
7:00 PM 66.2 °F 44.6 °F 46% 30.08 in 9.0 mi West 3.5 mph - N/A   Clear
8:00 PM 55.4 °F 50.0 °F 82% 30.09 in 9.0 mi WSW 4.6 mph - N/A   Clear
9:00 PM 54 °F 49 °F 77% 30.12 in 10 mi South 5.8 mph - -  
9:00 PM 53.6 °F 48.2 °F 82% 30.12 in 9.0 mi SSW 5.8 mph - N/A   Clear
10:00 PM 51.8 °F 48.2 °F 88% 30.14 in 9.0 mi WSW 4.6 mph - N/A   Clear
11:00 PM 50.0 °F 48.2 °F 94% 30.17 in 9.0 mi South 3.5 mph - N/A   Clear